Voltar ao catálogo

BREEZE-M R/B

AtivoHEO
NORAD 29650·ROCKET BODY·🇷🇺 Russia

Lançado Dec 11, 2006 de Baikonur Cosmodrome

Loading…

Próximas Passagens (próximas 24 horas)

TLE

AtualizadoSource: Space-Track

Época: Sep 11, 2026, 16:22 UTC

1 29650U 06056C   26254.68239199 -.00000161  00000-0  00000-0 0  9994
2 29650  16.7467  73.2055 4985661 274.3284 327.0822  1.86163447134187

Acompanhe BREEZE-M R/B em tempo real com AllMySat

Download on the App Store